Location: Sternwarte ZA, Rosenfeld-Brittheim
(48.2889°N, 8.6789°E)
Time: 14:12:14
(UTC+02:00)

ISS - Pass Details

Date: 18 May 2018
Orbit: 402 x 407 km, 51.6° (Epoch: 25 May)

Event Time Altitude Azimuth Distance (km) Brightness Sun altitude
Rises 04:56:05 0° 292° (WNW) 2,320 -0.3 -7.1°
Reaches altitude 10° 04:58:10 10° 291° (WNW) 1,459 -1.3 -6.8°
Maximum altitude 05:01:26 76° 206° (SSW) 418 -3.9 -6.4°
Drops below altitude 10° 05:04:41 10° 119° (ESE) 1,454 -0.7 -5.9°
Sets 05:06:46 0° 118° (ESE) 2,311 0.3 -5.7°
